contact:dominique.lefevre@mio.osupytheas.fr, maurice.libes@osupytheas.fr, didier.mallarino@osupytheas.fr
Project:EMSO http://www.emso-fr.org/EMSO-France
Depth: 2436.0 m
Title:EMSO Ligure Ouest : Data MII capteur CSTAR
DateTime,Latitude,Longitude,Instrument_Serial,Reference_Counts,Signal_Counts,Corrected_Signal_raw_counts,Calculated_Beam_c_inverse_meters,Internal_thermistor_counts
DateTime,Latitude,Longitude,Instrument_Serial,Reference_Counts,Signal_Counts,Corrected_Signal_raw_counts,Calculated_Beam_c_inverse_meters,Internal_thermistor_counts
2020-06-12T00:00:19,42.805,6.029,CST-1368DR,6205,8696,15149,0.121,550
2020-06-12T00:03:21,42.805,6.029,CST-1368DR,6206,8695,15146,0.122,551
2020-06-12T00:06:22,42.805,6.029,CST-1368DR,6205,8695,15148,0.122,551
2020-06-12T00:09:24,42.805,6.029,CST-1368DR,6205,8694,15145,0.123,551
2020-06-12T00:12:26,42.805,6.029,CST-1368DR,6205,8695,15148,0.122,551
2020-06-12T00:15:28,42.805,6.029,CST-1368DR,6205,8696,15149,0.121,551
2020-06-12T00:18:29,42.805,6.029,CST-1368DR,6205,8696,15149,0.121,551
2020-06-12T00:21:31,42.805,6.029,CST-1368DR,6205,8696,15149,0.121,551
2020-06-12T00:24:33,42.805,6.029,CST-1368DR,6205,8695,15148,0.122,551
2020-06-12T00:27:34,42.805,6.029,CST-1368DR,6205,8694,15146,0.122,551
2020-06-12T00:30:36,42.805,6.029,CST-1368DR,6205,8695,15148,0.122,551
2020-06-12T00:33:38,42.805,6.029,CST-1368DR,6205,8694,15147,0.122,551
2020-06-12T00:36:39,42.805,6.029,CST-1368DR,6205,8694,15147,0.122,551
2020-06-12T00:39:41,42.805,6.029,CST-1368DR,6205,8695,15147,0.122,551
2020-06-12T00:42:43,42.805,6.029,CST-1368DR,6205,8694,15146,0.122,551
2020-06-12T00:45:44,42.805,6.029,CST-1368DR,6205,8694,15146,0.122,551
2020-06-12T00:48:46,42.805,6.029,CST-1368DR,6205,8694,15145,0.123,551
2020-06-12T00:51:48,42.805,6.029,CST-1368DR,6205,8695,15147,0.122,551
2020-06-12T00:54:49,42.805,6.029,CST-1368DR,6205,8693,15144,0.123,550
2020-06-12T00:57:51,42.805,6.029,CST-1368DR,6205,8695,15148,0.122,551
2020-06-12T01:00:53,42.805,6.029,CST-1368DR,6205,8694,15147,0.122,551
2020-06-12T01:03:55,42.805,6.029,CST-1368DR,6205,8695,15148,0.122,551
2020-06-12T01:06:56,42.805,6.029,CST-1368DR,6205,8695,15148,0.122,551
2020-06-12T01:09:58,42.805,6.029,CST-1368DR,6205,8695,15147,0.122,551
2020-06-12T01:13:00,42.805,6.029,CST-1368DR,6205,8695,15148,0.122,551
2020-06-12T01:16:01,42.805,6.029,CST-1368DR,6205,8694,15146,0.122,551
2020-06-12T01:19:03,42.805,6.029,CST-1368DR,6205,8695,15147,0.122,551
2020-06-12T01:22:05,42.805,6.029,CST-1368DR,6205,8695,15148,0.122,551
2020-06-12T01:25:06,42.805,6.029,CST-1368DR,6205,8695,15148,0.122,551
2020-06-12T01:28:08,42.805,6.029,CST-1368DR,6205,8695,15147,0.122,551
2020-06-12T01:31:10,42.805,6.029,CST-1368DR,6205,8694,15146,0.122,550
2020-06-12T01:34:11,42.805,6.029,CST-1368DR,6205,8695,15148,0.122,551
2020-06-12T01:37:13,42.805,6.029,CST-1368DR,6205,8695,15149,0.121,551
2020-06-12T01:40:15,42.805,6.029,CST-1368DR,6205,8695,15147,0.122,551
2020-06-12T01:43:16,42.805,6.029,CST-1368DR,6205,8693,15145,0.123,551
2020-06-12T01:46:18,42.805,6.029,CST-1368DR,6205,8694,15145,0.123,551
2020-06-12T01:49:20,42.805,6.029,CST-1368DR,6205,8693,15144,0.123,551
2020-06-12T01:52:21,42.805,6.029,CST-1368DR,6205,8693,15144,0.123,551
2020-06-12T01:55:23,42.805,6.029,CST-1368DR,6205,8692,15143,0.123,551
2020-06-12T01:58:25,42.805,6.029,CST-1368DR,6205,8694,15145,0.123,551
2020-06-12T02:01:27,42.805,6.029,CST-1368DR,6205,8694,15146,0.122,551
2020-06-12T02:04:28,42.805,6.029,CST-1368DR,6205,8695,15147,0.122,551
2020-06-12T02:07:30,42.805,6.029,CST-1368DR,6205,8694,15145,0.123,551
2020-06-12T02:10:32,42.805,6.029,CST-1368DR,6205,8693,15144,0.123,551
2020-06-12T02:13:33,42.805,6.029,CST-1368DR,6205,8686,15133,0.126,551
2020-06-12T02:16:35,42.805,6.029,CST-1368DR,6205,8694,15146,0.122,551
2020-06-12T02:19:37,42.805,6.029,CST-1368DR,6205,8693,15144,0.123,551
2020-06-12T02:22:38,42.805,6.029,CST-1368DR,6205,8694,15146,0.122,551
2020-06-12T02:25:40,42.805,6.029,CST-1368DR,6205,8694,15146,0.122,550
2020-06-12T02:28:42,42.805,6.029,CST-1368DR,6205,8694,15146,0.122,551
2020-06-12T02:31:44,42.805,6.029,CST-1368DR,6205,8694,15145,0.123,551
2020-06-12T02:34:45,42.805,6.029,CST-1368DR,6205,8693,15145,0.123,551
2020-06-12T02:37:47,42.805,6.029,CST-1368DR,6205,8694,15145,0.123,551
2020-06-12T02:40:49,42.805,6.029,CST-1368DR,6205,8694,15146,0.122,551
2020-06-12T02:43:50,42.805,6.029,CST-1368DR,6205,8694,15146,0.122,551
2020-06-12T02:46:52,42.805,6.029,CST-1368DR,6205,8693,15144,0.123,551
2020-06-12T02:49:54,42.805,6.029,CST-1368DR,6205,8694,15146,0.122,551
2020-06-12T02:52:55,42.805,6.029,CST-1368DR,6205,8693,15145,0.123,551
2020-06-12T02:55:57,42.805,6.029,CST-1368DR,6205,8693,15144,0.123,551
2020-06-12T02:58:59,42.805,6.029,CST-1368DR,6205,8693,15144,0.123,551
2020-06-12T03:02:00,42.805,6.029,CST-1368DR,6205,8694,15145,0.123,551
2020-06-12T03:05:02,42.805,6.029,CST-1368DR,6205,8694,15146,0.122,550
2020-06-12T03:08:04,42.805,6.029,CST-1368DR,6205,8692,15143,0.123,551
2020-06-12T03:11:05,42.805,6.029,CST-1368DR,6205,8693,15144,0.123,551
2020-06-12T03:14:07,42.805,6.029,CST-1368DR,6205,8695,15147,0.122,551
2020-06-12T03:17:09,42.805,6.029,CST-1368DR,6205,8695,15148,0.122,551
2020-06-12T03:20:11,42.805,6.029,CST-1368DR,6205,8694,15146,0.122,551
2020-06-12T03:23:12,42.805,6.029,CST-1368DR,6205,8695,15148,0.122,551
2020-06-12T03:26:14,42.805,6.029,CST-1368DR,6205,8696,15149,0.121,551
2020-06-12T03:29:16,42.805,6.029,CST-1368DR,6205,8695,15147,0.122,551
2020-06-12T03:32:17,42.805,6.029,CST-1368DR,6205,8695,15148,0.122,551
2020-06-12T03:35:19,42.805,6.029,CST-1368DR,6205,8695,15149,0.121,551
2020-06-12T03:38:21,42.805,6.029,CST-1368DR,6205,8694,15146,0.122,551
2020-06-12T03:41:23,42.805,6.029,CST-1368DR,6205,8695,15148,0.122,551
2020-06-12T03:44:24,42.805,6.029,CST-1368DR,6205,8695,15149,0.121,551
2020-06-12T03:47:26,42.805,6.029,CST-1368DR,6205,8695,15148,0.122,551
2020-06-12T03:50:28,42.805,6.029,CST-1368DR,6205,8695,15147,0.122,551
2020-06-12T03:53:29,42.805,6.029,CST-1368DR,6205,8695,15147,0.122,551
2020-06-12T03:56:31,42.805,6.029,CST-1368DR,6205,8695,15148,0.122,551
2020-06-12T03:59:33,42.805,6.029,CST-1368DR,6205,8694,15147,0.122,551
2020-06-12T04:02:34,42.805,6.029,CST-1368DR,6205,8694,15145,0.123,551
2020-06-12T04:05:36,42.805,6.029,CST-1368DR,6205,8694,15147,0.122,551
2020-06-12T04:08:38,42.805,6.029,CST-1368DR,6205,8694,15147,0.122,551
2020-06-12T04:11:39,42.805,6.029,CST-1368DR,6205,8694,15146,0.122,551
2020-06-12T04:14:41,42.805,6.029,CST-1368DR,6205,8695,15148,0.122,551
2020-06-12T04:17:43,42.805,6.029,CST-1368DR,6205,8695,15148,0.122,551
2020-06-12T04:20:44,42.805,6.029,CST-1368DR,6205,8694,15147,0.122,551
2020-06-12T04:23:46,42.805,6.029,CST-1368DR,6205,8694,15146,0.122,551
2020-06-12T04:26:48,42.805,6.029,CST-1368DR,6205,8695,15147,0.122,551
2020-06-12T04:29:50,42.805,6.029,CST-1368DR,6205,8695,15148,0.122,551
2020-06-12T04:32:51,42.805,6.029,CST-1368DR,6205,8695,15149,0.121,551
2020-06-12T04:35:53,42.805,6.029,CST-1368DR,6205,8694,15147,0.122,551
2020-06-12T04:38:55,42.805,6.029,CST-1368DR,6205,8694,15146,0.122,551
2020-06-12T04:41:57,42.805,6.029,CST-1368DR,6205,8694,15147,0.122,551
2020-06-12T04:44:58,42.805,6.029,CST-1368DR,6204,8694,15149,0.121,551
2020-06-12T04:48:00,42.805,6.029,CST-1368DR,6204,8694,15149,0.121,551
2020-06-12T04:51:02,42.805,6.029,CST-1368DR,6205,8694,15147,0.122,551
2020-06-12T04:54:03,42.805,6.029,CST-1368DR,6204,8694,15148,0.122,551
2020-06-12T04:57:05,42.805,6.029,CST-1368DR,6205,8695,15147,0.122,551
2020-06-12T05:00:07,42.805,6.029,CST-1368DR,6205,8694,15146,0.122,551
2020-06-12T05:03:09,42.805,6.029,CST-1368DR,6204,8694,15149,0.121,551
2020-06-12T05:06:10,42.805,6.029,CST-1368DR,6204,8694,15148,0.122,551
2020-06-12T05:09:12,42.805,6.029,CST-1368DR,6204,8694,15148,0.122,551
2020-06-12T05:12:14,42.805,6.029,CST-1368DR,6204,8693,15147,0.122,551
2020-06-12T05:15:15,42.805,6.029,CST-1368DR,6204,8693,15147,0.122,551
2020-06-12T05:18:17,42.805,6.029,CST-1368DR,6204,8695,15150,0.121,551
2020-06-12T05:21:19,42.805,6.029,CST-1368DR,6204,8695,15150,0.121,551
2020-06-12T05:24:20,42.805,6.029,CST-1368DR,6204,8690,15141,0.124,550
2020-06-12T05:27:22,42.805,6.029,CST-1368DR,6204,8694,15149,0.121,551
2020-06-12T05:30:24,42.805,6.029,CST-1368DR,6204,8695,15150,0.121,551
2020-06-12T05:33:25,42.805,6.029,CST-1368DR,6204,8694,15149,0.121,551
2020-06-12T05:36:27,42.805,6.029,CST-1368DR,6204,8695,15150,0.121,551
2020-06-12T05:39:29,42.805,6.029,CST-1368DR,6204,8694,15149,0.121,551
2020-06-12T05:42:30,42.805,6.029,CST-1368DR,6204,8695,15150,0.121,551
2020-06-12T05:45:32,42.805,6.029,CST-1368DR,6204,8695,15150,0.121,551
2020-06-12T05:48:34,42.805,6.029,CST-1368DR,6204,8695,15150,0.121,551
2020-06-12T05:51:36,42.805,6.029,CST-1368DR,6204,8695,15150,0.121,551
2020-06-12T05:54:37,42.805,6.029,CST-1368DR,6204,8695,15150,0.121,551
2020-06-12T05:57:39,42.805,6.029,CST-1368DR,6204,8693,15146,0.122,551
2020-06-12T06:00:41,42.805,6.029,CST-1368DR,6204,8692,15145,0.123,551
2020-06-12T06:03:42,42.805,6.029,CST-1368DR,6204,8692,15145,0.123,551
2020-06-12T06:06:44,42.805,6.029,CST-1368DR,6204,8692,15145,0.123,551
2020-06-12T06:09:46,42.805,6.029,CST-1368DR,6204,8690,15142,0.123,550
2020-06-12T06:12:47,42.805,6.029,CST-1368DR,6204,8692,15144,0.123,551
2020-06-12T06:15:49,42.805,6.029,CST-1368DR,6204,8694,15148,0.122,551
2020-06-12T06:18:51,42.805,6.029,CST-1368DR,6204,8694,15148,0.122,551
2020-06-12T06:21:52,42.805,6.029,CST-1368DR,6204,8694,15148,0.122,551
2020-06-12T06:24:54,42.805,6.029,CST-1368DR,6204,8693,15147,0.122,551
2020-06-12T06:27:56,42.805,6.029,CST-1368DR,6204,8694,15148,0.122,551
2020-06-12T06:30:58,42.805,6.029,CST-1368DR,6204,8692,15144,0.123,551
2020-06-12T06:34:00,42.805,6.029,CST-1368DR,6204,8694,15149,0.121,550
2020-06-12T06:37:02,42.805,6.029,CST-1368DR,6204,8694,15148,0.122,551
2020-06-12T06:40:03,42.805,6.029,CST-1368DR,6204,8695,15150,0.121,551
2020-06-12T06:43:05,42.805,6.029,CST-1368DR,6204,8694,15149,0.121,551
2020-06-12T06:46:07,42.805,6.029,CST-1368DR,6204,8695,15150,0.121,551
2020-06-12T06:49:08,42.805,6.029,CST-1368DR,6204,8694,15149,0.121,551
2020-06-12T06:52:10,42.805,6.029,CST-1368DR,6204,8694,15148,0.122,551
2020-06-12T06:55:12,42.805,6.029,CST-1368DR,6204,8692,15146,0.122,551
2020-06-12T06:58:13,42.805,6.029,CST-1368DR,6204,8693,15146,0.122,551
2020-06-12T07:01:15,42.805,6.029,CST-1368DR,6204,8693,15146,0.122,551
2020-06-12T07:04:17,42.805,6.029,CST-1368DR,6204,8694,15149,0.121,551
2020-06-12T07:07:18,42.805,6.029,CST-1368DR,6204,8694,15149,0.121,550
2020-06-12T07:10:20,42.805,6.029,CST-1368DR,6204,8695,15150,0.121,551
2020-06-12T07:13:22,42.805,6.029,CST-1368DR,6204,8694,15148,0.122,551
2020-06-12T07:16:24,42.805,6.029,CST-1368DR,6204,8694,15148,0.122,551
2020-06-12T07:19:25,42.805,6.029,CST-1368DR,6204,8693,15146,0.122,551
2020-06-12T07:22:27,42.805,6.029,CST-1368DR,6204,8693,15147,0.122,551
2020-06-12T07:25:29,42.805,6.029,CST-1368DR,6204,8693,15146,0.122,551
2020-06-12T07:28:30,42.805,6.029,CST-1368DR,6204,8694,15148,0.122,551
2020-06-12T07:31:32,42.805,6.029,CST-1368DR,6204,8694,15149,0.121,551
2020-06-12T07:34:34,42.805,6.029,CST-1368DR,6204,8694,15148,0.122,551
2020-06-12T07:37:35,42.805,6.029,CST-1368DR,6204,8693,15146,0.122,551
2020-06-12T07:40:37,42.805,6.029,CST-1368DR,6204,8694,15148,0.122,551
2020-06-12T07:43:39,42.805,6.029,CST-1368DR,6204,8692,15145,0.123,551
2020-06-12T07:46:40,42.805,6.029,CST-1368DR,6204,8694,15149,0.121,551
2020-06-12T07:49:42,42.805,6.029,CST-1368DR,6204,8694,15149,0.121,551
2020-06-12T07:52:44,42.805,6.029,CST-1368DR,6204,8694,15149,0.121,551
2020-06-12T07:55:46,42.805,6.029,CST-1368DR,6204,8694,15149,0.121,551
2020-06-12T07:58:47,42.805,6.029,CST-1368DR,6204,8694,15149,0.121,551
2020-06-12T08:01:49,42.805,6.029,CST-1368DR,6204,8694,15148,0.122,551
2020-06-12T08:04:51,42.805,6.029,CST-1368DR,6204,8694,15148,0.122,551
2020-06-12T08:07:52,42.805,6.029,CST-1368DR,6204,8693,15147,0.122,551
2020-06-12T08:10:54,42.805,6.029,CST-1368DR,6204,8694,15149,0.121,551
2020-06-12T08:13:56,42.805,6.029,CST-1368DR,6204,8694,15149,0.121,550
2020-06-12T08:16:57,42.805,6.029,CST-1368DR,6204,8694,15149,0.121,551
2020-06-12T08:19:59,42.805,6.029,CST-1368DR,6204,8693,15146,0.122,551
2020-06-12T08:23:01,42.805,6.029,CST-1368DR,6204,8694,15149,0.121,551
2020-06-12T08:26:02,42.805,6.029,CST-1368DR,6204,8693,15147,0.122,551
2020-06-12T08:29:04,42.805,6.029,CST-1368DR,6204,8692,15146,0.122,551
2020-06-12T08:32:06,42.805,6.029,CST-1368DR,6204,8694,15149,0.121,550
2020-06-12T08:35:07,42.805,6.029,CST-1368DR,6204,8694,15148,0.122,551
2020-06-12T08:38:09,42.805,6.029,CST-1368DR,6204,8693,15146,0.122,551
2020-06-12T08:41:11,42.805,6.029,CST-1368DR,6204,8694,15149,0.121,551
2020-06-12T08:44:12,42.805,6.029,CST-1368DR,6204,8694,15149,0.121,551
2020-06-12T08:47:14,42.805,6.029,CST-1368DR,6204,8693,15147,0.122,551
2020-06-12T08:50:16,42.805,6.029,CST-1368DR,6204,8692,15146,0.122,551
2020-06-12T08:53:17,42.805,6.029,CST-1368DR,6204,8694,15148,0.122,551
2020-06-12T08:56:19,42.805,6.029,CST-1368DR,6204,8694,15149,0.121,551
2020-06-12T08:59:21,42.805,6.029,CST-1368DR,6204,8694,15148,0.122,551
2020-06-12T09:02:23,42.805,6.029,CST-1368DR,6204,8694,15148,0.122,551
2020-06-12T09:05:24,42.805,6.029,CST-1368DR,6204,8693,15146,0.122,551
2020-06-12T09:08:26,42.805,6.029,CST-1368DR,6204,8693,15147,0.122,551
2020-06-12T09:11:28,42.805,6.029,CST-1368DR,6204,8694,15148,0.122,551
2020-06-12T09:14:29,42.805,6.029,CST-1368DR,6204,8694,15148,0.122,551
2020-06-12T09:17:31,42.805,6.029,CST-1368DR,6204,8694,15149,0.121,551
2020-06-12T09:20:33,42.805,6.029,CST-1368DR,6204,8693,15146,0.122,551
2020-06-12T09:23:34,42.805,6.029,CST-1368DR,6204,8693,15147,0.122,550
2020-06-12T09:26:36,42.805,6.029,CST-1368DR,6204,8692,15145,0.123,551
2020-06-12T09:29:38,42.805,6.029,CST-1368DR,6204,8693,15147,0.122,551
2020-06-12T09:32:40,42.805,6.029,CST-1368DR,6204,8693,15146,0.122,551
2020-06-12T09:35:41,42.805,6.029,CST-1368DR,6204,8693,15146,0.122,551
2020-06-12T09:38:43,42.805,6.029,CST-1368DR,6204,8694,15148,0.122,551
2020-06-12T09:41:45,42.805,6.029,CST-1368DR,6204,8693,15146,0.122,551
2020-06-12T09:44:46,42.805,6.029,CST-1368DR,6204,8694,15149,0.121,551
2020-06-12T09:47:48,42.805,6.029,CST-1368DR,6204,8694,15148,0.122,551
2020-06-12T09:50:50,42.805,6.029,CST-1368DR,6204,8694,15148,0.122,551
2020-06-12T09:53:51,42.805,6.029,CST-1368DR,6204,8691,15143,0.123,551
2020-06-12T09:56:53,42.805,6.029,CST-1368DR,6204,8693,15147,0.122,551
2020-06-12T09:59:55,42.805,6.029,CST-1368DR,6204,8694,15149,0.121,550
2020-06-12T10:02:56,42.805,6.029,CST-1368DR,6204,8694,15148,0.122,551
2020-06-12T10:05:58,42.805,6.029,CST-1368DR,6204,8693,15146,0.122,551
2020-06-12T10:09:00,42.805,6.029,CST-1368DR,6204,8694,15148,0.122,551
2020-06-12T10:12:02,42.805,6.029,CST-1368DR,6203,8694,15150,0.121,551
2020-06-12T10:15:03,42.805,6.029,CST-1368DR,6204,8692,15145,0.123,551
2020-06-12T10:18:05,42.805,6.029,CST-1368DR,6204,8692,15146,0.122,551
2020-06-12T10:21:07,42.805,6.029,CST-1368DR,6203,8691,15146,0.122,551
2020-06-12T10:24:08,42.805,6.029,CST-1368DR,6204,8693,15147,0.122,551
2020-06-12T10:27:10,42.805,6.029,CST-1368DR,6203,8692,15147,0.122,551
2020-06-12T10:30:12,42.805,6.029,CST-1368DR,6203,8692,15147,0.122,551
2020-06-12T10:33:14,42.805,6.029,CST-1368DR,6204,8693,15147,0.122,551
2020-06-12T10:36:15,42.805,6.029,CST-1368DR,6203,8692,15147,0.122,551
2020-06-12T10:39:17,42.805,6.029,CST-1368DR,6203,8693,15149,0.121,551
2020-06-12T10:42:19,42.805,6.029,CST-1368DR,6203,8692,15148,0.122,551
2020-06-12T10:45:21,42.805,6.029,CST-1368DR,6203,8693,15149,0.121,551
2020-06-12T10:48:22,42.805,6.029,CST-1368DR,6203,8688,15140,0.124,551
2020-06-12T10:51:24,42.805,6.029,CST-1368DR,6204,8694,15148,0.122,551
2020-06-12T10:54:26,42.805,6.029,CST-1368DR,6203,8690,15144,0.123,551
2020-06-12T10:57:27,42.805,6.029,CST-1368DR,6203,8689,15143,0.123,551
2020-06-12T11:00:29,42.805,6.029,CST-1368DR,6204,8691,15144,0.123,551
2020-06-12T11:03:31,42.805,6.029,CST-1368DR,6203,8693,15149,0.121,551
2020-06-12T11:06:32,42.805,6.029,CST-1368DR,6203,8692,15148,0.122,551
2020-06-12T11:09:34,42.805,6.029,CST-1368DR,6203,8694,15150,0.121,551
2020-06-12T11:12:36,42.805,6.029,CST-1368DR,6203,8691,15145,0.123,551
2020-06-12T11:15:37,42.805,6.029,CST-1368DR,6203,8692,15147,0.122,551
2020-06-12T11:18:39,42.805,6.029,CST-1368DR,6203,8693,15149,0.121,551
2020-06-12T11:21:41,42.805,6.029,CST-1368DR,6203,8693,15149,0.121,551
2020-06-12T11:24:42,42.805,6.029,CST-1368DR,6203,8693,15149,0.121,551
2020-06-12T11:27:44,42.805,6.029,CST-1368DR,6203,8693,15149,0.121,551
2020-06-12T11:30:46,42.805,6.029,CST-1368DR,6203,8692,15147,0.122,551
2020-06-12T11:33:48,42.805,6.029,CST-1368DR,6203,8694,15150,0.121,550
2020-06-12T11:36:49,42.805,6.029,CST-1368DR,6203,8693,15148,0.122,551
2020-06-12T11:39:51,42.805,6.029,CST-1368DR,6203,8694,15150,0.121,551
2020-06-12T11:42:53,42.805,6.029,CST-1368DR,6203,8694,15150,0.121,551
2020-06-12T11:45:55,42.805,6.029,CST-1368DR,6203,8692,15147,0.122,551
2020-06-12T11:48:56,42.805,6.029,CST-1368DR,6203,8693,15148,0.122,551
2020-06-12T11:51:58,42.805,6.029,CST-1368DR,6203,8693,15149,0.121,551
2020-06-12T11:55:00,42.805,6.029,CST-1368DR,6203,8693,15148,0.122,551
2020-06-12T11:58:01,42.805,6.029,CST-1368DR,6203,8694,15150,0.121,551
2020-06-12T12:01:03,42.805,6.029,CST-1368DR,6203,8692,15147,0.122,551
2020-06-12T12:04:05,42.805,6.029,CST-1368DR,6203,8691,15146,0.122,551
2020-06-12T12:07:06,42.805,6.029,CST-1368DR,6203,8689,15142,0.123,551
2020-06-12T12:10:08,42.805,6.029,CST-1368DR,6203,8692,15147,0.122,551
2020-06-12T12:13:10,42.805,6.029,CST-1368DR,6203,8694,15150,0.121,551
2020-06-12T12:16:12,42.805,6.029,CST-1368DR,6203,8692,15147,0.122,551
2020-06-12T12:19:13,42.805,6.029,CST-1368DR,6203,8692,15147,0.122,551
2020-06-12T12:22:15,42.805,6.029,CST-1368DR,6203,8693,15148,0.122,551
2020-06-12T12:25:17,42.805,6.029,CST-1368DR,6203,8694,15150,0.121,551
2020-06-12T12:28:18,42.805,6.029,CST-1368DR,6203,8693,15148,0.122,551
2020-06-12T12:31:20,42.805,6.029,CST-1368DR,6203,8693,15149,0.121,551
2020-06-12T12:34:22,42.805,6.029,CST-1368DR,6203,8691,15146,0.122,551
2020-06-12T12:37:23,42.805,6.029,CST-1368DR,6203,8692,15147,0.122,551
2020-06-12T12:40:25,42.805,6.029,CST-1368DR,6203,8692,15147,0.122,551
2020-06-12T12:43:27,42.805,6.029,CST-1368DR,6203,8692,15147,0.122,551
2020-06-12T12:46:28,42.805,6.029,CST-1368DR,6203,8692,15148,0.122,551
2020-06-12T12:49:30,42.805,6.029,CST-1368DR,6203,8691,15146,0.122,551
2020-06-12T12:52:32,42.805,6.029,CST-1368DR,6203,8692,15148,0.122,551
2020-06-12T12:55:34,42.805,6.029,CST-1368DR,6203,8692,15148,0.122,550
2020-06-12T12:58:35,42.805,6.029,CST-1368DR,6203,8691,15146,0.122,551
2020-06-12T13:01:37,42.805,6.029,CST-1368DR,6203,8692,15148,0.122,551
2020-06-12T13:04:39,42.805,6.029,CST-1368DR,6203,8693,15148,0.122,551
2020-06-12T13:07:41,42.805,6.029,CST-1368DR,6203,8692,15147,0.122,551
2020-06-12T13:10:42,42.805,6.029,CST-1368DR,6203,8692,15148,0.122,551
2020-06-12T13:13:44,42.805,6.029,CST-1368DR,6203,8691,15146,0.122,551
2020-06-12T13:16:46,42.805,6.029,CST-1368DR,6203,8693,15148,0.122,551
2020-06-12T13:19:47,42.805,6.029,CST-1368DR,6203,8691,15145,0.123,551
2020-06-12T13:22:49,42.805,6.029,CST-1368DR,6203,8689,15143,0.123,551
2020-06-12T13:25:51,42.805,6.029,CST-1368DR,6203,8692,15147,0.122,551
2020-06-12T13:28:52,42.805,6.029,CST-1368DR,6203,8689,15142,0.123,551
2020-06-12T13:31:54,42.805,6.029,CST-1368DR,6203,8693,15148,0.122,551
2020-06-12T13:34:56,42.805,6.029,CST-1368DR,6203,8693,15149,0.121,551
2020-06-12T13:37:57,42.805,6.029,CST-1368DR,6203,8692,15147,0.122,551
2020-06-12T13:40:59,42.805,6.029,CST-1368DR,6203,8692,15147,0.122,551
2020-06-12T13:44:01,42.805,6.029,CST-1368DR,6203,8692,15147,0.122,551
2020-06-12T13:47:02,42.805,6.029,CST-1368DR,6203,8692,15147,0.122,551
2020-06-12T13:50:04,42.805,6.029,CST-1368DR,6203,8691,15146,0.122,551
2020-06-12T13:53:06,42.805,6.029,CST-1368DR,6203,8692,15147,0.122,551
2020-06-12T13:56:08,42.805,6.029,CST-1368DR,6203,8692,15148,0.122,550
2020-06-12T13:59:09,42.805,6.029,CST-1368DR,6203,8692,15147,0.122,551
2020-06-12T14:02:11,42.805,6.029,CST-1368DR,6203,8692,15147,0.122,551
2020-06-12T14:05:13,42.805,6.029,CST-1368DR,6203,8693,15148,0.122,551
2020-06-12T14:08:14,42.805,6.029,CST-1368DR,6203,8692,15147,0.122,551
2020-06-12T14:11:16,42.805,6.029,CST-1368DR,6203,8692,15147,0.122,551
2020-06-12T14:14:18,42.805,6.029,CST-1368DR,6203,8693,15148,0.122,551
2020-06-12T14:17:19,42.805,6.029,CST-1368DR,6203,8692,15148,0.122,551
2020-06-12T14:20:21,42.805,6.029,CST-1368DR,6203,8693,15148,0.122,551
2020-06-12T14:23:23,42.805,6.029,CST-1368DR,6203,8692,15147,0.122,551
2020-06-12T14:26:24,42.805,6.029,CST-1368DR,6203,8692,15147,0.122,551
2020-06-12T14:29:26,42.805,6.029,CST-1368DR,6203,8693,15148,0.122,551
2020-06-12T14:32:28,42.805,6.029,CST-1368DR,6203,8691,15146,0.122,551
2020-06-12T14:35:29,42.805,6.029,CST-1368DR,6203,8692,15147,0.122,551
2020-06-12T14:38:31,42.805,6.029,CST-1368DR,6203,8691,15146,0.122,551
2020-06-12T14:41:33,42.805,6.029,CST-1368DR,6203,8692,15147,0.122,551
2020-06-12T14:44:34,42.805,6.029,CST-1368DR,6203,8692,15147,0.122,551
2020-06-12T14:47:36,42.805,6.029,CST-1368DR,6203,8692,15148,0.122,551
2020-06-12T14:50:38,42.805,6.029,CST-1368DR,6203,8692,15147,0.122,551
2020-06-12T14:53:40,42.805,6.029,CST-1368DR,6203,8692,15147,0.122,551
2020-06-12T14:56:41,42.805,6.029,CST-1368DR,6203,8692,15147,0.122,551
2020-06-12T14:59:43,42.805,6.029,CST-1368DR,6203,8692,15148,0.122,551
2020-06-12T15:02:45,42.805,6.029,CST-1368DR,6203,8692,15147,0.122,551
2020-06-12T15:05:46,42.805,6.029,CST-1368DR,6203,8691,15145,0.123,551
2020-06-12T15:08:48,42.805,6.029,CST-1368DR,6203,8692,15148,0.122,551
2020-06-12T15:11:50,42.805,6.029,CST-1368DR,6203,8692,15147,0.122,551
2020-06-12T15:14:51,42.805,6.029,CST-1368DR,6203,8692,15147,0.122,551
2020-06-12T15:17:53,42.805,6.029,CST-1368DR,6203,8692,15147,0.122,551
2020-06-12T15:20:55,42.805,6.029,CST-1368DR,6203,8692,15147,0.122,551
2020-06-12T15:23:56,42.805,6.029,CST-1368DR,6203,8690,15143,0.123,551
2020-06-12T15:26:58,42.805,6.029,CST-1368DR,6203,8691,15146,0.122,551
2020-06-12T15:30:00,42.805,6.029,CST-1368DR,6203,8692,15147,0.122,551
2020-06-12T15:33:01,42.805,6.029,CST-1368DR,6203,8691,15146,0.122,551
2020-06-12T15:36:03,42.805,6.029,CST-1368DR,6203,8691,15146,0.122,551
2020-06-12T15:39:05,42.805,6.029,CST-1368DR,6203,8689,15141,0.124,551
2020-06-12T15:42:06,42.805,6.029,CST-1368DR,6202,8689,15145,0.123,551
2020-06-12T15:45:08,42.805,6.029,CST-1368DR,6203,8691,15146,0.122,551
2020-06-12T15:48:10,42.805,6.029,CST-1368DR,6202,8691,15147,0.122,551
2020-06-12T15:51:11,42.805,6.029,CST-1368DR,6203,8691,15145,0.123,551
2020-06-12T15:54:13,42.805,6.029,CST-1368DR,6203,8692,15147,0.122,551
2020-06-12T15:57:15,42.805,6.029,CST-1368DR,6203,8691,15146,0.122,551
2020-06-12T16:00:17,42.805,6.029,CST-1368DR,6202,8692,15149,0.121,551
2020-06-12T16:03:18,42.805,6.029,CST-1368DR,6202,8692,15149,0.121,551
2020-06-12T16:06:20,42.805,6.029,CST-1368DR,6202,8692,15149,0.121,551
2020-06-12T16:09:22,42.805,6.029,CST-1368DR,6202,8689,15144,0.123,551
2020-06-12T16:12:23,42.805,6.029,CST-1368DR,6202,8691,15148,0.122,551
2020-06-12T16:15:25,42.805,6.029,CST-1368DR,6202,8691,15148,0.122,551
2020-06-12T16:18:27,42.805,6.029,CST-1368DR,6202,8692,15150,0.121,551
2020-06-12T16:21:28,42.805,6.029,CST-1368DR,6202,8692,15150,0.121,551
2020-06-12T16:24:30,42.805,6.029,CST-1368DR,6202,8691,15148,0.122,551
2020-06-12T16:27:32,42.805,6.029,CST-1368DR,6202,8691,15148,0.122,551
2020-06-12T16:30:33,42.805,6.029,CST-1368DR,6202,8692,15149,0.121,550
2020-06-12T16:33:35,42.805,6.029,CST-1368DR,6202,8692,15149,0.121,551
2020-06-12T16:36:37,42.805,6.029,CST-1368DR,6202,8692,15149,0.121,551
2020-06-12T16:39:38,42.805,6.029,CST-1368DR,6202,8691,15148,0.122,551
2020-06-12T16:42:40,42.805,6.029,CST-1368DR,6202,8691,15147,0.122,551
2020-06-12T16:45:42,42.805,6.029,CST-1368DR,6202,8692,15149,0.121,551
2020-06-12T16:48:43,42.805,6.029,CST-1368DR,6202,8691,15148,0.122,551
2020-06-12T16:51:45,42.805,6.029,CST-1368DR,6202,8691,15148,0.122,551